Pian Rosa, Italy

9:28 AM CET on January 17, 2018 (GMT +0100)
Pian Rosa

Weather History for LIMH - February, 2014

Change the Weather History Date:

Sunday, February 9, 2014

  Actual Average Record
Temperature  
Mean Temperature 9 °F -  
Max Temperature 15 °F 17 °F 28 °F (1998)
Min Temperature 3 °F 6 °F -10 °F (2013)
Degree Days  
Heating Degree Days 56    
Moisture  
Dew Point -1 °F    
Average Humidity 66    
Maximum Humidity 100    
Minimum Humidity 47    
Precipitation  
Precipitation 0.00 in - - ()
Sea Level Pressure  
Sea Level Pressure 29.40 in    
Wind  
Wind Speed 8 mph ()    
Max Wind Speed 28 mph    
Max Gust Speed 39 mph    
Visibility 5.0 miles    
Events Fog    
Averages and records for this station are not official NWS values.
T = Trace of Precipitation, MM = Missing Value Source: Averaged Metar Reports

Daily Weather History Graph

Daily Weather History Graph

Search for Another Location

Airport or City:

Trip Planner

Search our weather history database for the weather conditions in past years. The results will help you decide how hot, cold, wet, or windy it might be!

Date:

Astronomy

Feb. 09, 2014 Rise Set
Actual Time 7:41 AM CET 5:46 PM CET
Civil Twilight 7:09 AM CET 6:17 PM CET
Nautical Twilight 6:34 AM CET 6:52 PM CET
Astronomical Twilight 5:59 AM CET 7:27 PM CET
Moon 1:08 PM CET (2/9) 3:37 AM CET (2/9)
Length of Visible Light 11h 07m
Length of Day
10h 05m
Waxing Gibbous, 75% of the Moon is Illuminated
Feb 9
Waxing Gibbous
Feb 15
Full
Feb 22
Last Quarter
Mar 1
New
Mar 8
First Quarter

Hourly Weather History & Observations

Time (CET) Temp. Windchill Dew Point Humidity Pressure Visibility Wind Dir Wind Speed Gust Speed Precip Events Conditions
12:00 AM 11 °F - 10 °F 96%  in 0 mi SW 11.5 mph - - Fog Heavy Fog
12:55 AM 8.6 °F -9.5 °F 8.6 °F 100% 29.36 in 0.1 mi SW 17.3 mph - N/A Fog Light Freezing Fog
1:00 AM 9 °F - 9 °F 97%  in 0 mi SW 17.3 mph - - Fog Heavy Fog
1:55 AM 10.4 °F 4.0 °F 8.6 °F 92% 29.39 in 0.3 mi Variable 3.5 mph - N/A Fog Light Freezing Fog
2:00 AM 10 °F - 8 °F 89%  in 0 mi 3.5 mph - - Fog Heavy Fog
2:55 AM 8.6 °F -2.6 °F 5.0 °F 85% 29.36 in 6.2 mi West 6.9 mph - N/A   Scattered Clouds
3:00 AM 9 °F - 5 °F 76%  in 6 mi West 6.9 mph - -   Partly Cloudy
3:55 AM 8.6 °F -3.7 °F 3.2 °F 79% 29.36 in 6.2 mi NNE 8.1 mph - N/A   Partly Cloudy
4:00 AM 8 °F - 2 °F 68%  in 6 mi NNE 8.1 mph - -   Partly Cloudy
4:55 AM 8.6 °F 2.0 °F -0.4 °F 67% 29.33 in - Variable 3.5 mph - N/A   Clear
5:00 AM 8 °F - 0 °F 59%  in 6 mi 3.5 mph - -  
5:55 AM 6.8 °F -4.8 °F -2.2 °F 67% 29.33 in - NW 6.9 mph - N/A   Clear
6:00 AM 7 °F - -3 °F 51%  in 6 mi NW 6.9 mph - -  
6:55 AM 5.0 °F -4.1 °F -4.0 °F 66% 29.33 in - NNW 4.6 mph - N/A   Clear
7:00 AM 6 °F - -3 °F 51%  in 6 mi NNW 4.6 mph - -   Partly Cloudy
7:55 AM 5.0 °F -4.1 °F -4.0 °F 66% 29.33 in 6.2 mi North 4.6 mph - N/A   Partly Cloudy
8:00 AM 5 °F - -4 °F 52%  in 12 mi North 4.6 mph - -   Scattered Clouds
8:55 AM 5.0 °F -5.6 °F -5.8 °F 61% 29.36 in 6.2 mi NNW 5.8 mph - N/A   Partly Cloudy
9:00 AM 5 °F - -5 °F 48%  in 19 mi NNW 5.8 mph - -   Scattered Clouds
9:55 AM 5.0 °F -8.1 °F -4.0 °F 66% 29.36 in 6.2 mi NW 8.1 mph - N/A   Scattered Clouds
10:00 AM 5 °F - -5 °F 49%  in 9 mi NW 8.1 mph - -   Partly Cloudy
10:55 AM 5.0 °F -5.6 °F -2.2 °F 72% 29.39 in 6.2 mi West 5.8 mph 17.3 mph N/A   Scattered Clouds
11:00 AM 5 °F - -3 °F 58%  in 6 mi West 5.8 mph - -   Mostly Cloudy
11:55 AM 5.0 °F -4.1 °F -2.2 °F 72% 29.39 in 0.5 mi NNW 4.6 mph 16.1 mph N/A Fog Light Freezing Fog
12:00 PM 6 °F - -1 °F 60%  in 0 mi NNW 4.6 mph - - Fog Heavy Fog
12:55 PM 6.8 °F -5.9 °F -0.4 °F 72% 29.36 in 0.5 mi WNW 8.1 mph 25.3 mph N/A Fog Light Freezing Fog
1:00 PM 6 °F - -0 °F 64%  in 0 mi WNW 8.1 mph - - Fog Heavy Fog
1:55 PM 5.0 °F -8.1 °F -2.2 °F 72% 29.39 in 0.2 mi North 8.1 mph - N/A Fog Light Freezing Fog
2:00 PM 5 °F - -1 °F 63%  in 0 mi Calm Calm - - Fog Heavy Fog
2:55 PM 3.2 °F -12.2 °F -2.2 °F 78% 29.42 in 0.5 mi NNW 10.4 mph - N/A Fog Light Freezing Fog
3:00 PM 3 °F - -3 °F 65%  in 0 mi NNW 10.4 mph - - Fog Heavy Fog
3:55 PM 5.0 °F -8.1 °F -2.2 °F 72% 29.44 in 6.2 mi West 8.1 mph - N/A   Scattered Clouds
4:00 PM 5 °F - -2 °F 59%  in 9 mi West 8.1 mph - - Fog Light Fog
4:55 PM 3.2 °F -10.3 °F -4.0 °F 72% 29.47 in 6.2 mi NNW 8.1 mph - N/A   Scattered Clouds
5:00 PM 4 °F - -4 °F 56%  in 9 mi NNW 8.1 mph - -   Partly Cloudy
5:55 PM 5.0 °F -4.1 °F -4.0 °F 66% 29.50 in 6.2 mi South 4.6 mph - N/A   Partly Cloudy
6:00 PM 5 °F - -4 °F 53%  in 9 mi South 4.6 mph - -   Scattered Clouds
6:55 PM 14.0 °F 3.9 °F 5.0 °F 67% 29.50 in 6.2 mi West 6.9 mph - N/A   Partly Cloudy
7:00 PM 14 °F - 4 °F 53%  in 6 mi West 6.9 mph - -   Partly Cloudy
7:55 PM 14.0 °F 5.1 °F 3.2 °F 62% 29.50 in 6.2 mi SW 5.8 mph - N/A   Partly Cloudy
8:00 PM 14 °F - 4 °F 51%  in 6 mi SW 5.8 mph - -   Scattered Clouds
8:55 PM 5.0 °F -10.8 °F -4.0 °F 66% 29.47 in - SW 11.5 mph - N/A   Clear
9:00 PM 5 °F - -5 °F 50%  in 6 mi SW 11.5 mph - -  
9:55 PM 6.8 °F -15.9 °F -4.0 °F 61% 29.47 in 6.2 mi SSW 27.6 mph - N/A   Scattered Clouds
10:00 PM 6 °F - -5 °F 47%  in 6 mi SSW 27.6 mph - -   Partly Cloudy
10:55 PM 6.8 °F -14.7 °F -2.2 °F 67% 29.44 in 6.2 mi South 24.2 mph 39.1 mph N/A   Scattered Clouds
11:00 PM 7 °F - -3 °F 51%  in 6 mi South 24.2 mph - -   Partly Cloudy
11:55 PM 6.8 °F -13.4 °F -0.4 °F 72% 29.44 in 6.2 mi SSW 20.7 mph 34.5 mph N/A   Scattered Clouds